Temp
11 11 10 10 10 10 10 10 9 9 9 9 9 9 9 8 8 8 8 8 8 8 7 7 7 7 7 6 6 6 6 5 5 5 5 5 5 5 5 4 4 4 4 4 4 4 4 4 4 4 4 3 3 3 2 2 2 2 2 1 1 1 1 1 1 1 1 1 1
11 10 10 10 10 10 10 10 9 9 9 9 9 9 8 8 8 8 8 8 8 7 7 7 7 6 6 6 6 6 5 5 5 5 5 5 4 4 4 4 4 4 4 4 4 4 4 4 4 3 3 3 3 2 2 2 2 1 1 1 1 1 1 1 1 1 1 1 1
10 10 10 10 10 10 10 9 9 9 9 9 8 8 8 8 8 8 8 8 7 7 7 7 6 6 6 6 6 5 5 5 5 5 5 4 4 4 4 4 4 4 4 4 4 4 4 3 3 3 3 3 2 2 2 1 1 1 1 1 1 1 1 1 1 1 0 0 0
10 10 10 10 10 9 9 9 9 9 9 8 8 8 8 8 8 8 8 7 7 7 7 6 6 6 6 5 5 5 5 5 5 4 4 4 4 4 4 4 4 4 3 3 3 3 3 3 3 3 2 2 2 2 1 1 1 1 1 1 1 1 1 0 0 0 0 0 0
10 10 10 10 9 9 9 9 9 8 8 8 8 8 8 8 8 7 7 7 7 7 6 6 6 6 5 5 5 5 5 4 4 4 4 4 4 4 4 4 3 3 3 3 3 3 3 3 3 2 2 2 1 1 1 1 1 1 1 1 1 0 0 0 0 -0 -0 -0 -0
9 9 9 9 9 9 9 9 8 8 8 8 8 8 7 7 7 7 7 7 7 6 6 6 5 5 5 5 5 4 4 4 4 4 4 4 4 4 3 3 3 3 3 3 3 3 3 3 2 2 2 1 1 1 1 1 1 1 1 0 0 0 0 -0 -0 -0 -0 -0 -0
9 9 9 9 9 9 8 8 8 8 8 8 8 7 7 7 7 7 7 6 6 6 6 5 5 5 5 4 4 4 4 4 4 4 4 3 3 3 3 3 3 3 3 3 3 3 2 2 2 2 1 1 1 1 1 1 0 0 0 0 0 -0 -0 -0 -0 -0 -1 -1 -1
9 9 8 8 8 8 8 8 8 8 8 7 7 7 7 7 7 6 6 6 6 6 5 5 5 5 4 4 4 4 4 4 4 3 3 3 3 3 3 3 3 3 3 3 2 2 2 2 2 1 1 1 1 1 0 0 0 0 -0 -0 -0 -0 -0 -0 -1 -1 -1 -1 -1
8 8 8 8 8 8 8 8 7 7 7 7 7 7 7 7 6 6 6 6 5 5 5 5 4 4 4 4 4 4 4 3 3 3 3 3 3 3 3 3 3 3 2 2 2 2 2 2 1 1 1 1 0 0 0 0 0 -0 -0 -0 -0 -0 -1 -1 -1 -1 -1 -1 -1
8 8 8 8 8 7 7 7 7 7 7 7 7 7 6 6 6 6 6 5 5 5 5 4 4 4 4 4 3 3 3 3 3 3 3 3 3 3 3 3 2 2 2 2 2 2 1 1 1 1 1 0 0 0 -0 -0 -0 -0 -1 -1 -1 -1 -1 -1 -1 -1 -1 -2 -2
8 7 7 7 7 7 7 7 7 7 7 6 6 6 6 6 6 5 5 5 5 4 4 4 4 4 3 3 3 3 3 3 3 3 3 3 3 2 2 2 2 2 2 2 1 1 1 1 1 1 0 0 0 -0 -0 -0 -1 -1 -1 -1 -1 -1 -1 -1 -2 -2 -2 -2 -2
7 7 7 7 7 7 7 7 6 6 6 6 6 6 6 6 5 5 5 5 4 4 4 4 3 3 3 3 3 3 3 3 3 3 3 3 2 2 2 2 2 2 1 1 1 1 1 1 0 0 0 -0 -0 -0 -1 -1 -1 -1 -1 -1 -1 -2 -2 -2 -2 -2 -2 -2 -2
7 7 7 7 7 6 6 6 6 6 6 6 6 6 5 5 5 5 5 4 4 4 3 3 3 3 3 3 3 3 3 3 3 3 2 2 2 2 2 1 1 1 1 1 1 1 1 0 0 -0 -0 -0 -1 -1 -1 -1 -1 -1 -1 -1 -2 -2 -2 -2 -2 -2 -2 -2 -2
6 6 6 6 6 6 6 6 6 6 6 6 5 5 5 5 5 5 4 4 4 3 3 3 3 3 3 3 3 3 3 2 2 2 2 2 2 1 1 1 1 1 1 1 1 1 0 -0 -0 -1 -1 -1 -1 -1 -1 -1 -1 -2 -2 -2 -2 -2 -2 -2 -2 -2 -2 -2 -2
6 6 6 6 6 6 6 6 6 5 5 5 5 5 5 5 4 4 4 4 3 3 3 3 3 3 3 2 2 2 2 2 2 2 2 2 1 1 1 1 1 1 1 1 0 0 -0 -0 -1 -1 -1 -1 -1 -1 -1 -1 -2 -2 -2 -2 -2 -2 -2 -2 -2 -2 -2 -2 -2
6 6 6 6 6 5 5 5 5 5 5 5 5 5 4 4 4 4 4 3 3 3 3 3 2 2 2 2 2 2 2 2 2 2 2 1 1 1 1 1 1 1 0 0 0 -0 -0 -1 -1 -1 -1 -2 -2 -2 -2 -2 -2 -2 -2 -2 -2 -2 -2 -3 -3 -3 -3 -3 -3
6 5 5 5 5 5 5 5 5 5 5 4 4 4 4 4 4 4 3 3 3 3 2 2 2 2 2 2 2 2 2 2 2 2 1 1 1 1 1 1 1 0 0 -0 -0 -1 -1 -1 -1 -2 -2 -2 -2 -2 -2 -2 -2 -2 -2 -2 -2 -3 -3 -3 -3 -3 -3 -3 -3
5 5 5 5 5 5 5 5 4 4 4 4 4 4 4 4 3 3 3 3 3 2 2 2 2 2 2 2 2 2 2 2 2 1 1 1 1 1 1 0 0 -0 -0 -1 -1 -1 -1 -1 -2 -2 -2 -2 -2 -2 -2 -2 -2 -2 -2 -3 -3 -3 -3 -3 -3 -3 -3 -3 -3
5 5 5 5 5 4 4 4 4 4 4 4 4 4 4 3 3 3 3 2 2 2 2 2 2 2 2 2 2 2 2 2 1 1 1 1 1 1 0 0 -0 -0 -1 -1 -1 -1 -1 -2 -2 -2 -2 -2 -2 -2 -2 -2 -2 -3 -3 -3 -3 -3 -3 -3 -3 -4 -4 -4 -4
5 5 4 4 4 4 4 4 4 4 4 4 3 3 3 3 3 3 2 2 2 2 2 2 2 2 2 2 2 2 1 1 1 1 1 1 1 0 -0 -0 -1 -1 -1 -1 -1 -2 -2 -2 -2 -2 -2 -2 -2 -2 -2 -2 -3 -3 -3 -3 -3 -4 -4 -4 -4 -4 -4 -4 -4
4 4 4 4 4 4 4 4 4 4 3 3 3 3 3 3 2 2 2 2 2 2 2 2 2 2 2 2 2 1 1 1 1 1 1 0 0 -0 -1 -1 -1 -1 -1 -1 -2 -2 -2 -2 -2 -2 -2 -2 -2 -2 -3 -3 -3 -3 -3 -4 -4 -4 -4 -4 -4 -4 -4 -4 -4
4 4 4 4 4 4 4 4 3 3 3 3 3 3 2 2 2 2 2 2 2 2 2 2 2 2 2 2 1 1 1 1 1 1 0 -0 -0 -1 -1 -1 -1 -1 -2 -2 -2 -2 -2 -2 -2 -2 -2 -2 -2 -3 -3 -3 -4 -4 -4 -4 -4 -4 -4 -4 -4 -4 -5 -4 -4
4 4 4 4 4 4 3 3 3 3 3 3 2 2 2 2 2 2 2 2 2 2 2 2 2 2 1 1 1 1 1 1 1 0 -0 -0 -1 -1 -1 -1 -2 -2 -2 -2 -2 -2 -2 -2 -2 -2 -3 -3 -3 -3 -3 -4 -4 -4 -4 -4 -5 -5 -5 -5 -5 -5 -5 -5 -5
4 4 4 3 3 3 3 3 3 3 3 2 2 2 2 2 2 2 2 2 2 2 2 2 2 1 1 1 1 1 1 1 0 -0 -0 -1 -1 -1 -1 -2 -2 -2 -2 -2 -2 -2 -2 -2 -3 -3 -3 -3 -3 -4 -4 -4 -4 -4 -5 -5 -5 -5 -5 -5 -5 -5 -5 -5 -5
4 3 3 3 3 3 3 3 2 2 2 2 2 2 2 2 2 2 2 2 2 2 1 1 1 1 1 1 1 1 0 0 -0 -1 -1 -1 -1 -1 -2 -2 -2 -2 -2 -2 -2 -2 -3 -3 -3 -3 -4 -4 -4 -4 -4 -4 -5 -5 -5 -5 -5 -5 -5 -5 -5 -5 -5 -5 -5
3 3 3 3 3 3 2 2 2 2 2 2 2 2 2 2 2 2 2 1 1 1 1 1 1 1 1 1 1 0 0 -0 -1 -1 -1 -1 -1 -2 -2 -2 -2 -2 -2 -2 -3 -3 -3 -3 -3 -4 -4 -4 -4 -5 -5 -5 -5 -5 -5 -6 -6 -6 -6 -6 -5 -5 -5 -5 -5
3 3 3 2 2 2 2 2 2 2 2 2 2 2 1 1 1 1 1 1 1 1 1 1 1 1 1 1 0 0 -0 -1 -1 -1 -1 -2 -2 -2 -2 -2 -2 -2 -3 -3 -3 -3 -3 -3 -4 -4 -4 -5 -5 -5 -5 -5 -6 -6 -6 -6 -6 -6 -6 -5 -5 -5 -5 -5 -5
2 2 2 2 2 2 2 2 2 2 2 1 1 1 1 1 1 1 1 1 1 1 1 1 1 1 0 0 -0 -0 -1 -1 -1 -2 -2 -2 -2 -2 -2 -2 -2 -3 -3 -3 -3 -3 -3 -4 -4 -4 -5 -5 -5 -6 -6 -6 -6 -6 -6 -6 -6 -6 -6 -5 -5 -5 -5 -5 -5
2 2 2 2 2 2 2 2 2 1 1 1 1 1 1 1 1 1 1 1 1 1 1 1 0 0 0 -0 -0 -1 -1 -1 -2 -2 -2 -2 -2 -2 -2 -2 -3 -3 -3 -3 -3 -3 -4 -4 -4 -5 -5 -5 -6 -6 -6 -6 -6 -6 -6 -6 -6 -6 -6 -6 -6 -5 -5 -6 -6
2 2 2 2 2 2 1 1 1 1 1 1 1 1 1 1 1 1 1 1 1 1 1 0 0 0 -0 -0 -1 -1 -1 -2 -2 -2 -2 -2 -2 -2 -2 -3 -3 -3 -3 -3 -3 -4 -4 -4 -5 -5 -5 -5 -6 -6 -6 -7 -7 -7 -7 -7 -6 -6 -6 -6 -6 -6 -6 -6 -6
2 2 2 1 1 1 1 1 1 1 1 1 1 1 1 1 1 1 1 1 1 1 0 0 0 -0 -0 -1 -1 -1 -2 -2 -2 -2 -2 -2 -2 -2 -3 -3 -3 -3 -3 -4 -4 -4 -4 -5 -5 -5 -5 -6 -6 -6 -7 -7 -7 -7 -7 -7 -6 -6 -6 -6 -6 -6 -6 -6 -6
2 1 1 1 1 1 1 1 1 1 1 1 1 1 1 1 1 1 1 1 1 0 0 0 -0 -0 -1 -1 -1 -2 -2 -2 -2 -2 -2 -2 -2 -3 -3 -3 -3 -3 -3 -4 -4 -4 -5 -5 -5 -5 -6 -6 -6 -7 -7 -7 -7 -7 -7 -7 -6 -6 -6 -6 -6 -6 -6 -6 -6
1 1 1 1 1 1 1 1 1 1 1 1 1 1 1 1 1 1 1 0 0 0 0 -0 -0 -1 -1 -1 -1 -2 -2 -2 -2 -2 -2 -2 -3 -3 -3 -3 -3 -4 -4 -4 -4 -5 -5 -5 -5 -6 -6 -6 -7 -7 -7 -7 -7 -7 -7 -7 -7 -7 -7 -7 -7 -7 -7 -6 -6
1 1 1 1 1 1 1 1 1 1 1 1 1 1 1 1 1 1 0 0 0 -0 -0 -0 -1 -1 -1 -1 -2 -2 -2 -2 -2 -2 -2 -3 -3 -3 -3 -3 -4 -4 -4 -4 -5 -5 -5 -5 -6 -6 -6 -7 -7 -7 -7 -7 -7 -7 -7 -7 -7 -7 -7 -7 -7 -7 -7 -7 -6
1 1 1 1 1 1 1 1 1 1 1 1 1 1 1 1 0 0 0 0 -0 -0 -0 -1 -1 -1 -1 -2 -2 -2 -2 -2 -2 -2 -3 -3 -3 -3 -4 -4 -4 -4 -4 -5 -5 -5 -5 -6 -6 -6 -7 -7 -7 -7 -7 -7 -7 -7 -7 -7 -7 -7 -7 -7 -7 -7 -7 -7 -6
1 1 1 1 1 1 1 1 1 1 1 1 1 1 1 0 0 0 0 -0 -0 -0 -1 -1 -1 -1 -1 -2 -2 -2 -2 -2 -2 -3 -3 -3 -3 -3 -4 -4 -4 -4 -4 -5 -5 -5 -6 -6 -6 -7 -7 -7 -7 -7 -7 -7 -7 -7 -8 -8 -8 -7 -7 -7 -7 -7 -7 -7 -7
1 1 1 1 1 1 1 1 1 1 1 1 1 1 0 0 0 0 -0 -0 -0 -1 -1 -1 -1 -1 -1 -2 -2 -2 -2 -2 -3 -3 -3 -3 -4 -4 -4 -4 -4 -4 -5 -5 -5 -6 -6 -6 -7 -7 -7 -7 -7 -7 -7 -7 -8 -8 -8 -8 -8 -8 -7 -7 -7 -7 -7 -7 -7
1 1 1 1 1 1 1 1 1 1 1 1 1 0 0 0 0 -0 -0 -0 -1 -1 -1 -1 -1 -1 -2 -2 -2 -2 -2 -3 -3 -3 -3 -4 -4 -4 -4 -4 -5 -5 -5 -5 -6 -6 -6 -6 -7 -7 -7 -7 -7 -7 -7 -8 -8 -8 -8 -8 -8 -8 -7 -7 -7 -7 -7 -7 -7
1 1 1 1 1 1 1 1 1 1 1 0 0 0 0 0 -0 -0 -0 -1 -1 -1 -1 -1 -2 -2 -2 -2 -2 -3 -3 -3 -3 -3 -3 -4 -4 -4 -5 -5 -5 -5 -5 -6 -6 -6 -6 -6 -7 -7 -7 -7 -7 -7 -8 -8 -8 -8 -8 -8 -8 -8 -7 -7 -7 -7 -7 -7 -7
1 1 1 1 1 1 1 1 1 0 0 0 0 0 0 -0 -0 -0 -1 -1 -1 -1 -2 -2 -2 -2 -2 -3 -3 -3 -3 -3 -3 -3 -4 -4 -4 -5 -5 -5 -5 -5 -6 -6 -6 -6 -6 -6 -7 -7 -7 -7 -7 -7 -8 -8 -8 -8 -8 -8 -8 -8 -7 -7 -7 -7 -7 -7 -7
1 1 1 1 1 1 1 1 0 0 0 0 0 -0 -0 -0 -0 -1 -1 -1 -1 -2 -2 -2 -2 -2 -3 -3 -3 -3 -3 -3 -4 -4 -4 -4 -5 -5 -5 -5 -5 -6 -6 -6 -6 -6 -6 -6 -7 -7 -7 -7 -7 -7 -8 -8 -8 -8 -8 -8 -8 -8 -7 -7 -7 -7 -7 -7 -7
Height
1486 1486 1486 1486 1486 1486 1486 1485 1485 1485 1485 1484 1484 1483 1483 1482 1482 1481 1481 1480 1480 1479 1478 1477 1477 1476 1475 1474 1474 1473 1472 1472 1471 1470 1469 1469 1468 1467 1466 1465 1464 1463 1462 1462 1461 1459 1458 1457 1456 1455 1454 1453 1452 1450 1449 1448 1447 1446 1444 1443 1442 1440 1439 1437 1436 1435 1434 1433 1432
1486 1485 1485 1485 1485 1485 1485 1485 1484 1484 1484 1483 1483 1483 1482 1482 1481 1481 1480 1480 1479 1478 1478 1477 1476 1476 1475 1474 1473 1472 1472 1471 1470 1469 1469 1468 1467 1466 1465 1464 1463 1462 1462 1461 1459 1458 1457 1456 1455 1454 1452 1451 1450 1449 1448 1447 1446 1444 1443 1442 1440 1438 1437 1436 1434 1433 1432 1431 1430
1485 1485 1485 1484 1484 1484 1484 1484 1484 1483 1483 1483 1482 1482 1482 1481 1481 1480 1480 1479 1478 1478 1477 1477 1476 1475 1474 1473 1472 1472 1471 1470 1470 1469 1468 1467 1466 1465 1464 1463 1462 1462 1461 1459 1458 1457 1456 1455 1453 1452 1451 1450 1448 1447 1446 1445 1444 1442 1441 1440 1438 1437 1435 1434 1432 1431 1430 1429 1428
1484 1484 1484 1484 1484 1484 1483 1483 1483 1483 1482 1482 1482 1481 1481 1480 1480 1480 1479 1478 1478 1477 1477 1476 1475 1474 1473 1472 1472 1471 1470 1469 1469 1468 1467 1467 1466 1465 1464 1463 1462 1461 1460 1458 1457 1456 1455 1453 1452 1451 1449 1448 1447 1446 1445 1443 1442 1441 1440 1438 1437 1435 1434 1432 1431 1430 1429 1427 1426
1484 1484 1483 1483 1483 1483 1483 1483 1482 1482 1482 1482 1481 1480 1480 1480 1479 1479 1478 1478 1477 1476 1476 1475 1474 1473 1472 1472 1471 1470 1469 1469 1468 1467 1466 1466 1465 1464 1463 1462 1461 1460 1458 1457 1456 1455 1453 1452 1451 1449 1448 1447 1446 1445 1443 1442 1441 1439 1438 1436 1435 1433 1432 1431 1429 1428 1427 1425 1424
1483 1483 1483 1483 1482 1482 1482 1482 1482 1482 1481 1481 1480 1480 1479 1479 1478 1478 1477 1477 1476 1476 1475 1474 1473 1472 1472 1471 1470 1469 1469 1468 1467 1466 1466 1465 1464 1463 1462 1461 1460 1459 1457 1456 1455 1453 1452 1451 1449 1448 1447 1446 1444 1443 1442 1441 1439 1437 1436 1434 1433 1432 1431 1429 1428 1426 1425 1423 1422
1483 1483 1482 1482 1482 1482 1482 1481 1481 1481 1480 1480 1479 1479 1479 1478 1478 1477 1477 1476 1475 1475 1474 1473 1472 1472 1471 1470 1469 1469 1468 1467 1466 1466 1465 1464 1463 1462 1461 1460 1459 1457 1456 1455 1454 1452 1451 1450 1448 1447 1445 1444 1443 1442 1440 1439 1437 1436 1434 1432 1431 1430 1429 1427 1426 1424 1423 1421 1420
1483 1482 1482 1482 1482 1481 1481 1481 1480 1480 1480 1479 1479 1478 1478 1477 1477 1477 1476 1475 1474 1474 1473 1472 1472 1471 1470 1469 1468 1468 1467 1466 1465 1465 1464 1463 1462 1461 1460 1459 1457 1456 1455 1454 1452 1451 1450 1448 1447 1445 1444 1442 1441 1440 1438 1437 1436 1434 1432 1431 1429 1428 1427 1426 1424 1422 1421 1420 1418
1482 1482 1482 1482 1481 1481 1480 1480 1480 1479 1479 1478 1478 1477 1477 1477 1477 1476 1475 1474 1474 1473 1472 1471 1471 1470 1469 1468 1467 1467 1466 1465 1464 1463 1463 1462 1461 1460 1458 1457 1456 1455 1454 1452 1451 1450 1448 1447 1445 1444 1442 1441 1440 1438 1437 1435 1434 1432 1431 1429 1428 1426 1425 1424 1422 1421 1419 1418 1416
1482 1482 1481 1481 1481 1480 1480 1479 1479 1479 1478 1478 1477 1477 1476 1476 1476 1475 1474 1474 1473 1472 1471 1470 1470 1469 1468 1467 1467 1466 1465 1464 1463 1462 1462 1461 1460 1458 1457 1456 1455 1453 1452 1451 1450 1448 1447 1445 1444 1442 1441 1440 1438 1436 1435 1433 1432 1431 1429 1428 1426 1424 1423 1422 1421 1419 1417 1416 1415
1482 1481 1481 1480 1480 1480 1479 1479 1478 1478 1477 1477 1477 1476 1475 1475 1475 1474 1473 1473 1472 1471 1470 1469 1469 1468 1467 1467 1466 1465 1464 1463 1462 1462 1461 1459 1458 1457 1456 1455 1454 1452 1451 1450 1448 1447 1445 1444 1442 1441 1439 1438 1436 1435 1433 1432 1431 1429 1427 1426 1424 1422 1421 1419 1419 1417 1416 1414 1413
1481 1481 1480 1480 1479 1479 1478 1478 1478 1477 1477 1476 1476 1475 1475 1474 1474 1473 1473 1472 1471 1470 1469 1469 1468 1467 1466 1466 1465 1464 1463 1462 1462 1461 1459 1458 1457 1456 1455 1454 1452 1451 1450 1448 1447 1445 1444 1442 1441 1439 1437 1436 1435 1433 1432 1430 1429 1427 1425 1424 1422 1421 1419 1418 1417 1416 1414 1413 1411
1480 1480 1480 1479 1479 1478 1478 1477 1477 1477 1476 1476 1475 1474 1474 1473 1473 1472 1472 1471 1470 1469 1468 1468 1467 1466 1465 1465 1464 1463 1462 1462 1461 1459 1458 1457 1456 1455 1454 1452 1451 1450 1448 1447 1446 1444 1442 1441 1439 1437 1436 1434 1433 1432 1430 1428 1427 1425 1423 1422 1420 1419 1418 1416 1415 1414 1412 1411 1409
1480 1479 1479 1478 1478 1477 1477 1477 1476 1476 1475 1475 1474 1473 1473 1472 1472 1472 1471 1470 1469 1469 1468 1467 1466 1465 1465 1464 1463 1462 1461 1460 1459 1458 1457 1456 1455 1454 1453 1451 1450 1449 1447 1446 1444 1442 1441 1439 1437 1436 1434 1433 1431 1430 1428 1427 1425 1424 1422 1420 1419 1417 1416 1414 1413 1412 1410 1409 1407
1479 1479 1478 1478 1477 1477 1476 1476 1475 1475 1474 1474 1473 1472 1472 1472 1471 1471 1470 1469 1468 1468 1467 1466 1465 1464 1464 1463 1462 1461 1460 1459 1458 1457 1456 1455 1454 1453 1452 1450 1449 1447 1446 1444 1442 1441 1439 1438 1436 1434 1433 1431 1430 1428 1427 1425 1424 1422 1421 1419 1417 1416 1414 1412 1411 1410 1408 1407 1405
1478 1478 1477 1477 1477 1476 1476 1475 1475 1474 1473 1473 1472 1472 1471 1471 1470 1469 1469 1468 1467 1467 1466 1465 1464 1463 1463 1462 1461 1460 1459 1458 1457 1456 1455 1454 1453 1452 1450 1449 1447 1446 1444 1442 1441 1439 1438 1436 1435 1433 1431 1430 1428 1426 1425 1423 1422 1420 1419 1417 1416 1414 1412 1411 1409 1408 1406 1405 1403
1478 1477 1477 1476 1476 1475 1475 1474 1474 1473 1473 1472 1472 1471 1470 1470 1469 1468 1468 1467 1467 1466 1465 1464 1463 1462 1462 1461 1460 1459 1458 1457 1456 1455 1454 1453 1452 1450 1449 1447 1446 1444 1442 1441 1439 1437 1436 1435 1433 1432 1430 1428 1427 1425 1423 1422 1420 1418 1417 1415 1414 1412 1411 1409 1407 1406 1404 1402 1401
1477 1477 1476 1475 1475 1475 1474 1474 1473 1472 1472 1472 1471 1470 1470 1469 1468 1467 1467 1466 1466 1465 1464 1463 1462 1462 1461 1460 1459 1458 1457 1456 1455 1454 1453 1452 1450 1449 1447 1446 1444 1442 1441 1439 1438 1436 1435 1433 1432 1430 1428 1427 1425 1423 1422 1420 1418 1416 1415 1413 1412 1410 1408 1407 1405 1404 1402 1400 1399
1476 1476 1475 1475 1474 1474 1473 1473 1472 1472 1471 1471 1470 1469 1469 1468 1467 1467 1466 1465 1464 1464 1463 1462 1462 1461 1460 1459 1458 1457 1456 1455 1454 1453 1452 1450 1449 1447 1446 1444 1442 1441 1439 1438 1436 1435 1433 1432 1430 1428 1427 1425 1423 1421 1420 1418 1416 1414 1412 1411 1409 1407 1406 1404 1403 1402 1400 1398 1397
1475 1475 1474 1474 1473 1473 1472 1472 1472 1471 1470 1470 1469 1469 1468 1467 1466 1466 1465 1464 1463 1463 1462 1461 1461 1460 1459 1458 1457 1456 1455 1454 1453 1452 1450 1449 1447 1446 1444 1442 1441 1439 1438 1436 1435 1433 1432 1430 1428 1427 1425 1423 1421 1419 1417 1415 1414 1412 1410 1408 1407 1405 1403 1402 1400 1399 1397 1396 1394
1474 1474 1473 1473 1472 1472 1472 1471 1471 1470 1470 1469 1468 1468 1467 1466 1465 1464 1464 1463 1462 1462 1461 1460 1460 1459 1458 1457 1456 1455 1454 1453 1452 1450 1448 1447 1445 1444 1442 1441 1439 1438 1436 1435 1433 1432 1430 1429 1427 1425 1423 1421 1419 1417 1415 1413 1411 1409 1407 1406 1404 1402 1401 1400 1398 1397 1395 1394 1392
1473 1473 1472 1472 1472 1471 1471 1470 1470 1469 1469 1468 1467 1467 1466 1465 1464 1463 1462 1462 1461 1461 1460 1459 1459 1458 1457 1456 1455 1454 1453 1452 1450 1448 1447 1445 1444 1442 1441 1439 1438 1436 1435 1433 1432 1430 1429 1427 1425 1423 1421 1419 1417 1415 1413 1411 1409 1407 1405 1403 1402 1400 1399 1397 1396 1394 1393 1392 1390
1472 1472 1472 1471 1471 1470 1470 1469 1469 1468 1468 1467 1466 1466 1465 1464 1463 1462 1462 1461 1460 1460 1459 1458 1458 1457 1456 1455 1454 1453 1451 1450 1448 1447 1446 1444 1442 1441 1439 1438 1437 1435 1433 1432 1430 1429 1427 1425 1423 1421 1419 1417 1415 1413 1411 1409 1407 1405 1403 1401 1399 1397 1396 1395 1393 1392 1391 1389 1388
1472 1471 1471 1470 1470 1469 1469 1468 1468 1467 1467 1466 1465 1464 1463 1463 1462 1461 1461 1460 1460 1459 1458 1457 1457 1456 1455 1454 1452 1451 1450 1448 1447 1445 1444 1442 1441 1440 1438 1437 1435 1433 1432 1430 1429 1427 1425 1423 1421 1419 1417 1415 1413 1411 1409 1407 1405 1402 1401 1399 1397 1395 1394 1392 1391 1390 1389 1388 1387
1471 1470 1470 1469 1469 1468 1468 1467 1467 1467 1466 1465 1464 1463 1462 1462 1461 1461 1460 1459 1459 1458 1457 1457 1456 1455 1453 1452 1451 1450 1448 1447 1445 1443 1442 1441 1439 1438 1437 1435 1433 1432 1430 1428 1427 1426 1424 1422 1420 1418 1415 1413 1411 1408 1406 1404 1402 1401 1399 1397 1395 1393 1392 1390 1389 1388 1387 1386 1385
1470 1469 1469 1469 1468 1467 1467 1467 1466 1465 1465 1464 1463 1462 1462 1461 1460 1460 1459 1458 1458 1457 1456 1455 1454 1453 1452 1451 1449 1448 1447 1445 1444 1442 1441 1439 1438 1436 1435 1433 1432 1430 1428 1427 1425 1424 1422 1421 1419 1417 1414 1412 1409 1407 1404 1402 1400 1399 1397 1395 1393 1392 1390 1388 1387 1387 1386 1385 1384
1469 1468 1468 1467 1467 1467 1466 1466 1465 1464 1463 1463 1462 1461 1461 1460 1459 1459 1458 1457 1457 1456 1455 1454 1453 1452 1450 1449 1448 1446 1445 1443 1442 1441 1439 1438 1436 1435 1433 1432 1430 1429 1427 1425 1424 1422 1421 1419 1417 1415 1413 1411 1408 1405 1403 1400 1398 1397 1395 1393 1392 1390 1389 1388 1386 1385 1384 1383 1382
1468 1467 1467 1467 1466 1466 1465 1464 1464 1463 1462 1462 1461 1460 1460 1459 1458 1458 1457 1457 1456 1455 1454 1453 1452 1450 1449 1447 1446 1445 1443 1442 1441 1439 1437 1436 1435 1433 1432 1430 1428 1427 1425 1424 1422 1420 1419 1417 1415 1413 1411 1409 1407 1404 1401 1399 1397 1395 1393 1392 1391 1389 1388 1387 1385 1384 1382 1381 1380
1467 1467 1466 1466 1465 1465 1464 1463 1463 1462 1461 1461 1460 1459 1459 1458 1457 1457 1456 1455 1455 1454 1452 1451 1450 1449 1447 1446 1444 1443 1442 1440 1439 1438 1436 1435 1433 1432 1430 1428 1427 1425 1423 1422 1420 1418 1417 1415 1413 1411 1409 1407 1405 1402 1400 1397 1396 1394 1392 1391 1389 1388 1387 1386 1384 1383 1381 1380 1378
1466 1466 1465 1465 1464 1464 1463 1462 1462 1461 1460 1460 1459 1458 1458 1457 1457 1456 1455 1454 1453 1452 1451 1450 1449 1447 1446 1444 1443 1442 1440 1439 1438 1436 1435 1433 1432 1430 1428 1427 1425 1423 1422 1420 1418 1417 1415 1413 1411 1409 1407 1405 1403 1401 1398 1396 1394 1392 1391 1389 1388 1387 1386 1384 1383 1382 1380 1378 1377
1465 1465 1464 1464 1463 1462 1462 1461 1460 1460 1459 1459 1458 1457 1457 1456 1456 1455 1454 1453 1452 1451 1450 1448 1447 1446 1444 1443 1442 1441 1439 1438 1436 1435 1433 1432 1430 1428 1426 1425 1423 1421 1420 1418 1417 1415 1413 1411 1409 1407 1405 1403 1402 1399 1397 1395 1393 1391 1390 1388 1387 1386 1385 1383 1382 1380 1379 1377 1376
1464 1464 1463 1463 1462 1461 1461 1460 1459 1459 1458 1458 1457 1457 1456 1455 1455 1454 1453 1452 1451 1449 1448 1447 1446 1444 1443 1442 1440 1439 1438 1436 1435 1433 1432 1430 1428 1426 1424 1423 1421 1419 1418 1416 1415 1413 1411 1409 1407 1405 1403 1402 1400 1397 1395 1393 1392 1390 1389 1387 1386 1385 1383 1382 1380 1378 1377 1376 1374
1463 1463 1462 1462 1461 1460 1460 1459 1458 1458 1457 1457 1457 1456 1455 1454 1453 1452 1452 1450 1449 1448 1447 1445 1444 1442 1441 1440 1438 1437 1436 1434 1433 1431 1430 1428 1426 1424 1422 1421 1419 1417 1416 1415 1413 1411 1409 1407 1406 1403 1402 1400 1398 1396 1394 1392 1391 1389 1387 1386 1384 1383 1382 1380 1379 1377 1376 1374 1373
1462 1462 1461 1460 1460 1459 1459 1458 1458 1457 1457 1456 1456 1455 1454 1453 1452 1451 1450 1449 1447 1446 1445 1444 1442 1441 1440 1438 1437 1436 1434 1432 1431 1430 1428 1426 1424 1422 1421 1419 1417 1416 1414 1413 1411 1409 1407 1406 1403 1402 1400 1398 1396 1394 1392 1391 1389 1388 1386 1384 1383 1382 1380 1379 1377 1376 1374 1373 1372
1461 1461 1460 1459 1459 1458 1458 1457 1457 1457 1456 1455 1455 1454 1453 1452 1451 1450 1449 1447 1446 1445 1443 1442 1441 1440 1438 1437 1436 1434 1433 1431 1429 1428 1426 1424 1422 1421 1419 1417 1416 1414 1413 1411 1409 1407 1406 1403 1402 1400 1398 1397 1395 1393 1391 1389 1388 1386 1384 1383 1381 1380 1378 1377 1376 1374 1373 1372 1370
1460 1459 1459 1458 1458 1457 1457 1457 1456 1456 1455 1454 1453 1452 1452 1451 1450 1448 1447 1446 1444 1443 1442 1441 1439 1438 1437 1436 1434 1433 1431 1430 1427 1426 1424 1423 1421 1419 1417 1415 1414 1412 1411 1409 1407 1406 1404 1402 1400 1398 1397 1395 1393 1392 1390 1388 1386 1384 1383 1381 1380 1378 1377 1375 1374 1373 1372 1370 1369
1459 1458 1458 1458 1457 1457 1456 1456 1455 1455 1454 1453 1452 1452 1450 1449 1448 1447 1446 1444 1443 1442 1440 1439 1438 1437 1435 1434 1432 1431 1429 1428 1426 1424 1422 1421 1419 1417 1415 1413 1412 1410 1409 1407 1405 1403 1402 1400 1399 1397 1396 1394 1392 1391 1389 1387 1385 1383 1381 1380 1378 1377 1375 1374 1372 1371 1370 1369 1367
1458 1458 1457 1457 1457 1456 1456 1455 1454 1454 1453 1452 1451 1450 1449 1448 1447 1446 1444 1443 1442 1440 1438 1437 1436 1435 1434 1432 1431 1429 1427 1426 1425 1423 1421 1419 1417 1416 1414 1411 1409 1408 1407 1405 1403 1402 1401 1399 1398 1397 1395 1393 1391 1389 1387 1386 1383 1382 1380 1378 1377 1375 1374 1373 1371 1370 1368 1367 1365
1457 1457 1457 1456 1456 1455 1455 1454 1453 1452 1452 1451 1450 1449 1448 1447 1445 1444 1443 1442 1440 1439 1437 1436 1435 1433 1432 1431 1429 1427 1426 1424 1423 1421 1419 1417 1416 1414 1412 1410 1407 1406 1405 1403 1402 1401 1399 1398 1397 1396 1394 1392 1390 1388 1386 1384 1382 1381 1379 1377 1375 1374 1372 1371 1370 1368 1366 1364 1363
1457 1456 1456 1456 1455 1454 1454 1453 1452 1452 1451 1450 1448 1447 1446 1445 1444 1442 1442 1440 1439 1437 1436 1435 1433 1432 1431 1429 1427 1425 1423 1422 1421 1419 1418 1416 1414 1412 1410 1408 1406 1404 1403 1402 1401 1399 1398 1397 1396 1394 1393 1391 1389 1387 1386 1383 1381 1379 1378 1376 1374 1372 1371 1369 1368 1366 1364 1362 1361
1456 1456 1455 1455 1454 1454 1453 1452 1451 1451 1449 1448 1447 1446 1445 1444 1442 1441 1440 1439 1438 1437 1435 1433 1432 1430 1429 1427 1426 1424 1422 1420 1418 1417 1416 1414 1412 1411 1409 1407 1405 1403 1402 1401 1400 1398 1397 1396 1395 1393 1392 1390 1388 1387 1385 1383 1381 1378 1377 1375 1373 1372 1370 1367 1366 1364 1363 1361 1359
Wind_Speed
7 8 8 9 9 10 11 11 12 13 13 14 14 15 16 16 17 18 18 19 18 18 18 18 18 18 18 17 17 16 16 16 16 16 16 17 17 18 18 18 19 19 20 20 21 21 22 23 24 25 25 26 25 25 24 23 24 25 25 25 25 26 28 28 28 27 26 24 23
7 8 9 10 11 11 12 12 13 13 14 14 14 15 15 16 17 18 18 18 19 18 18 18 18 17 17 17 16 16 16 16 16 16 17 17 17 18 18 19 19 19 20 21 22 22 23 24 25 26 27 27 26 25 24 24 25 25 26 26 27 28 29 29 29 28 26 25 25
8 8 9 10 11 11 12 12 13 13 13 14 14 15 15 16 17 17 18 18 19 18 18 18 18 17 17 17 17 16 16 16 16 17 17 17 17 18 18 19 19 20 21 22 22 23 24 25 26 27 28 27 26 26 25 26 26 26 27 28 29 30 30 29 28 27 27 26 26
7 8 9 9 10 10 11 12 12 13 13 14 14 15 15 16 17 18 18 18 18 18 18 18 17 17 17 17 17 17 17 17 17 17 17 17 18 18 19 19 20 21 21 22 23 24 25 27 27 28 28 27 27 26 26 27 27 27 28 29 30 31 30 29 28 28 27 27 27
6 7 7 8 9 10 10 11 12 12 13 14 14 15 15 16 17 18 18 18 18 18 18 18 17 17 17 17 17 17 17 17 17 17 18 18 18 19 19 20 20 21 22 23 24 25 27 27 28 28 28 28 27 27 27 28 28 29 30 31 31 31 30 29 29 28 28 28 28
4 5 6 7 8 9 10 10 11 12 13 14 14 15 15 16 16 17 17 17 17 17 17 17 17 17 17 17 17 17 17 17 18 18 18 18 19 19 20 20 21 22 23 24 25 26 27 28 29 29 28 28 28 28 28 29 29 31 32 32 31 31 30 30 29 29 29 29 28
3 4 5 6 7 8 9 10 11 12 13 13 14 14 14 15 15 16 16 17 17 17 17 17 18 18 18 18 18 18 18 18 18 18 18 19 19 20 20 21 22 23 24 25 26 27 28 29 30 29 29 28 28 29 29 30 31 32 32 32 32 31 31 31 30 30 30 29 29
3 4 4 6 6 7 8 9 10 11 12 13 13 13 14 14 15 16 16 16 16 17 17 18 18 18 18 18 18 18 18 18 18 18 19 19 20 21 21 22 23 24 25 27 27 28 29 30 30 30 29 29 30 30 31 31 32 32 32 32 32 31 31 31 31 30 29 29 28
3 4 5 5 6 7 8 9 10 11 12 12 13 13 14 14 15 15 15 16 16 17 18 18 18 18 19 19 19 19 19 19 19 19 19 20 21 22 23 24 25 26 27 28 28 29 30 31 31 31 30 30 31 31 32 32 32 32 32 32 32 32 32 31 30 30 29 28 28
3 4 5 5 6 7 8 9 10 11 11 12 13 13 14 14 15 15 15 16 17 17 18 18 19 19 19 19 19 19 19 19 19 19 20 21 22 23 24 25 26 27 28 29 29 30 31 31 32 32 32 32 32 32 32 32 32 32 32 32 32 33 32 31 30 29 28 28 28
3 4 5 5 6 7 8 9 10 11 11 12 12 13 14 14 15 15 15 16 17 17 18 19 19 19 19 19 19 19 19 19 20 20 21 22 23 24 25 26 27 28 29 29 30 31 32 32 33 33 33 32 32 32 32 32 32 32 32 32 32 32 32 31 29 28 28 28 28
3 4 5 6 7 8 9 9 10 11 11 12 12 13 14 15 15 15 16 16 17 18 19 20 20 20 20 19 19 19 19 20 20 21 22 23 24 25 26 27 28 29 30 30 31 32 32 33 33 33 33 33 32 32 32 33 33 33 33 33 32 31 31 30 29 28 28 28 29
3 4 5 6 7 8 9 10 10 11 12 12 13 13 14 15 15 15 16 16 17 19 20 20 20 20 20 20 20 20 20 20 21 22 23 24 25 26 27 28 28 29 30 31 32 32 33 33 33 33 33 33 32 32 33 33 33 33 32 32 32 31 30 30 30 29 29 29 29
4 5 6 7 8 9 9 10 11 12 12 13 13 14 15 15 15 16 16 17 18 19 20 21 21 20 20 20 20 20 20 21 22 23 24 25 26 26 27 28 29 30 31 32 32 33 33 33 33 32 32 32 32 33 33 33 32 32 32 32 31 31 30 30 30 30 29 29 30
4 5 6 7 8 9 10 11 12 12 13 13 14 14 15 15 16 16 17 18 19 20 21 21 21 20 20 20 20 21 21 22 23 24 25 26 26 27 28 30 30 31 32 33 33 33 33 33 32 32 32 32 32 33 33 33 33 32 32 31 31 31 31 31 30 30 30 30 30
5 6 7 8 9 10 10 11 12 12 13 13 14 15 15 15 16 17 18 19 20 21 21 21 21 20 20 20 21 21 22 23 24 25 26 27 28 29 30 30 31 32 33 33 34 34 33 32 31 31 31 32 33 33 34 34 33 33 32 32 31 31 31 31 30 30 30 29 29
6 7 7 8 9 10 11 11 12 12 13 13 14 15 15 16 17 18 18 19 20 21 21 21 20 20 20 21 21 22 23 24 25 26 27 28 29 30 31 31 32 33 33 34 34 34 33 32 31 31 31 32 33 34 34 34 34 34 33 33 32 32 31 31 30 30 30 29 29
6 7 8 8 9 10 11 11 12 12 13 13 14 15 15 16 17 18 19 20 20 20 20 20 20 20 21 22 22 23 24 25 26 27 28 29 30 31 32 32 33 33 33 33 33 33 32 32 31 31 32 33 34 35 35 35 35 34 34 33 33 32 31 31 30 30 29 29 29
7 7 8 9 9 10 11 11 12 13 13 14 14 15 16 17 18 19 20 20 20 20 20 20 21 21 21 22 23 24 25 26 28 28 29 30 31 32 32 32 33 33 33 33 33 32 32 31 31 32 33 34 35 36 36 36 35 35 34 34 33 32 31 31 30 29 29 29 29
7 7 8 9 10 10 11 11 12 13 13 14 15 16 17 18 19 20 20 20 20 20 20 21 21 22 22 23 24 25 26 27 29 30 30 31 32 32 32 32 33 33 33 33 32 32 31 31 32 33 34 36 36 37 37 37 36 35 35 34 33 33 32 31 30 30 29 29 29
7 8 9 9 10 10 11 12 12 13 14 15 16 17 18 19 20 20 20 20 21 21 21 21 22 23 23 24 25 26 27 28 30 30 31 32 32 32 32 32 33 33 33 33 32 31 31 32 33 35 36 37 37 37 37 37 36 36 35 35 34 33 32 31 31 30 29 28 28
7 8 9 9 10 10 11 12 13 14 15 16 17 18 19 20 20 20 20 20 21 21 21 22 22 23 24 25 26 27 29 30 30 31 31 32 32 32 32 32 33 33 33 32 32 32 33 34 35 36 36 37 38 38 37 36 36 36 36 35 34 33 32 31 30 29 28 28 27
8 9 9 9 10 11 12 13 14 15 16 17 18 19 20 20 20 20 20 21 21 21 22 23 23 24 25 26 27 29 30 31 31 32 31 31 32 32 32 32 33 33 32 32 32 33 34 35 36 36 37 37 38 37 37 36 36 36 36 35 34 33 32 31 29 28 28 27 26
8 9 10 10 11 11 12 13 14 16 17 18 19 19 20 20 20 20 20 21 21 22 22 23 24 25 26 27 28 30 31 32 32 32 32 32 32 32 33 33 33 33 32 32 33 33 34 35 36 37 37 37 37 37 37 36 36 36 35 34 33 33 32 31 29 27 27 26 26
9 10 10 11 11 12 13 14 15 17 18 19 19 20 20 20 20 20 21 21 22 22 23 24 25 26 27 29 30 31 31 32 32 32 32 33 33 33 33 34 33 33 33 33 33 34 34 34 35 36 36 37 37 37 37 36 35 35 34 33 32 32 31 30 28 27 26 25 25
9 10 11 11 12 13 14 15 17 18 19 19 20 20 20 20 20 20 21 21 22 23 24 25 26 27 29 30 31 32 32 32 32 32 33 33 34 34 34 34 33 33 33 33 33 34 34 34 35 35 35 35 36 36 36 36 35 34 33 32 31 30 29 28 28 27 26 25 25
10 10 11 12 13 14 15 17 18 19 19 19 19 19 20 20 20 21 21 22 23 24 25 26 27 28 30 31 32 32 32 32 32 32 33 33 34 35 35 34 34 33 33 33 34 34 34 35 35 34 34 34 34 35 35 35 34 33 32 30 29 28 28 27 27 26 26 26 25
10 11 12 13 14 15 17 18 19 19 19 19 19 19 20 20 20 21 22 23 24 25 26 27 28 29 31 32 32 32 32 32 32 32 33 34 35 35 35 35 34 34 33 34 34 34 34 34 35 34 34 33 33 33 33 33 33 31 30 29 28 27 26 26 26 26 26 26 26
11 11 12 13 15 16 18 18 19 19 19 19 19 19 20 20 21 22 23 24 25 26 27 28 29 30 31 32 32 33 33 32 32 33 33 34 35 35 35 35 34 34 34 34 34 34 34 34 34 34 34 33 32 31 31 31 30 29 29 28 27 26 26 26 26 26 26 27 27
11 12 13 14 16 17 18 19 19 19 19 19 19 20 20 21 21 22 23 24 25 27 28 29 30 31 32 32 32 32 32 32 32 33 34 35 36 36 35 35 35 34 34 34 33 33 33 34 34 34 33 32 31 30 30 29 29 28 28 27 26 26 26 26 26 26 27 27 27
12 13 14 15 17 18 18 19 19 19 19 19 19 20 20 21 22 23 24 25 27 28 29 30 31 32 32 33 32 32 32 33 34 34 35 36 36 36 36 35 35 34 34 33 33 33 33 34 34 34 33 31 30 29 29 29 28 27 26 26 26 25 26 26 26 26 27 27 28
13 14 15 17 17 18 18 19 19 19 19 19 19 20 21 22 23 24 25 26 28 29 30 31 32 32 33 33 33 33 33 34 35 36 36 36 36 36 36 35 35 34 33 33 33 33 33 33 33 33 32 30 29 28 28 27 26 26 25 25 25 25 26 26 26 27 27 27 27
14 15 16 17 18 18 18 18 18 19 19 19 20 21 22 23 24 25 26 28 29 30 31 32 32 33 33 33 34 34 35 36 36 37 37 36 36 36 35 35 34 34 33 33 33 33 33 33 32 32 31 29 29 28 27 26 25 25 25 25 25 25 25 26 26 27 27 27 27
15 16 17 17 18 18 18 18 18 19 19 19 20 21 22 24 25 26 27 29 30 31 32 33 33 33 34 34 34 35 36 37 37 37 37 37 36 35 35 34 34 33 33 33 33 33 32 32 31 30 29 29 28 27 26 25 25 25 25 25 25 26 26 26 26 26 27 27 27
16 16 17 17 18 18 18 18 18 19 19 20 21 22 23 24 26 27 28 30 31 32 33 34 34 35 35 35 35 36 36 37 37 37 36 36 36 35 35 34 34 34 33 33 33 32 32 31 30 29 28 27 27 26 26 26 26 25 25 26 26 26 26 26 26 26 26 26 26
16 17 17 17 17 18 18 18 18 19 20 21 22 23 24 25 27 28 29 31 32 33 34 34 35 35 35 36 36 36 37 37 37 37 36 36 35 35 35 34 34 34 34 33 33 32 30 29 28 27 27 26 26 25 26 26 26 26 26 26 26 26 26 26 26 26 25 25 25
16 17 17 17 17 17 18 18 19 19 20 21 22 24 25 27 28 29 30 32 33 34 34 35 36 36 36 37 37 37 37 37 37 36 36 35 34 34 35 35 34 34 34 33 32 30 28 27 26 25 25 25 26 26 26 26 26 26 26 27 27 26 26 26 26 26 26 26 27
16 16 17 17 17 17 17 18 19 20 21 22 23 25 26 28 29 30 31 32 33 34 35 36 36 37 37 37 37 37 37 37 36 36 35 35 34 33 34 35 35 34 34 32 30 28 26 25 24 24 24 25 26 26 26 26 26 27 27 27 27 26 25 25 26 26 26 28 29
16 16 16 16 17 17 18 18 19 20 22 23 24 26 27 29 30 31 32 33 34 35 36 36 37 37 37 37 37 37 37 36 36 35 35 34 33 33 33 34 34 34 32 30 29 27 25 23 23 23 23 24 25 26 27 26 26 27 27 27 26 26 26 25 26 27 29 31 32
16 16 16 16 17 17 18 19 20 21 23 24 26 27 28 30 31 32 33 34 35 35 36 36 37 37 37 37 36 36 36 36 36 35 34 34 33 32 32 32 32 32 30 28 27 25 24 23 22 22 23 23 24 25 26 26 26 27 27 26 26 26 27 27 28 29 31 32 33
15 15 16 16 17 17 18 20 21 22 24 25 27 28 30 31 32 33 34 35 35 36 36 36 36 36 36 36 35 36 36 36 35 34 33 32 32 31 30 31 31 30 28 26 25 24 23 22 22 22 22 22 23 24 26 26 26 26 26 26 26 27 28 30 30 31 32 32 31
Wind_Direction
18 17 16 14 12 12 11 10 9 8 7 5 3 360 357 354 351 347 344 341 338 334 331 330 328 328 328 328 328 328 328 329 329 329 329 328 328 328 328 329 329 330 330 330 331 331 331 331 331 332 333 334 335 335 333 330 328 327 326 325 324 324 323 324 324 323 322 319 315
15 12 9 7 6 6 6 5 5 4 3 1 360 358 355 352 349 345 341 338 335 332 329 327 326 325 325 325 324 325 325 326 326 326 326 326 326 326 327 328 328 329 329 330 330 330 331 331 332 333 334 335 335 334 332 329 328 327 326 324 324 324 324 324 324 323 321 318 315
9 4 2 1 2 2 2 1 0 360 359 358 356 354 352 349 346 343 339 335 332 329 327 325 323 323 322 322 322 323 323 324 324 324 324 324 324 325 326 326 327 328 328 329 330 330 331 332 333 334 335 335 335 333 331 329 328 327 325 324 324 324 324 324 323 321 319 317 315
4 1 359 359 360 360 359 358 357 356 355 353 352 351 350 347 344 340 336 333 330 327 324 323 321 320 320 321 321 322 322 322 322 322 322 322 323 323 324 325 326 327 328 329 330 330 331 332 333 334 335 335 334 332 330 328 327 326 325 324 325 325 324 323 322 320 317 315 314
5 2 1 360 359 358 357 356 355 353 351 350 350 349 347 344 341 337 333 329 326 324 322 321 320 319 319 320 320 321 321 321 320 320 320 320 321 322 323 324 325 326 328 329 330 331 332 333 334 334 334 333 332 330 328 327 326 325 325 325 325 325 324 322 320 318 317 315 314
8 6 4 1 360 358 355 353 352 349 347 347 347 346 344 341 337 333 328 325 322 321 320 319 319 319 319 319 319 319 319 319 319 319 319 320 321 321 322 324 325 326 328 329 330 331 332 333 334 334 333 332 330 328 327 326 326 326 325 325 325 324 323 321 319 318 317 315 314
10 7 4 1 358 356 353 350 347 346 345 345 345 343 340 337 333 328 324 321 320 319 318 318 318 318 318 318 318 318 317 317 318 318 319 319 320 321 322 324 325 327 328 330 331 332 332 333 333 333 332 331 329 327 327 326 326 326 325 325 324 323 322 320 319 318 316 315 313
10 3 358 355 353 352 350 347 345 343 343 342 341 339 336 332 328 323 319 318 317 317 317 317 317 317 317 317 317 317 316 316 317 317 318 319 320 321 323 324 326 328 329 330 331 332 332 332 333 332 332 330 328 327 327 327 327 326 325 324 323 322 321 320 319 318 316 313 311
7 358 352 350 349 348 347 345 343 342 340 339 337 335 332 328 323 319 315 314 314 316 316 317 318 318 317 317 316 316 316 316 316 317 318 319 321 322 324 326 327 329 330 330 331 332 332 332 332 332 331 329 328 328 327 327 327 326 324 322 322 321 320 319 319 317 314 310 307
353 348 347 346 345 345 344 343 341 339 337 335 332 330 327 323 318 314 312 312 313 315 317 318 318 318 317 316 316 316 316 316 317 318 319 320 322 324 326 327 329 330 330 331 331 331 331 331 331 331 330 329 328 328 327 327 326 324 323 322 321 320 320 319 317 314 311 307 304
341 342 343 343 342 342 342 341 339 336 334 331 328 326 323 319 315 311 310 311 314 316 317 318 318 318 317 316 315 315 316 317 318 319 320 322 324 326 328 329 330 330 330 331 331 331 331 331 331 330 330 329 328 327 327 326 325 323 322 321 321 320 318 317 314 311 308 305 302
341 342 343 343 342 342 341 340 337 334 330 327 324 321 318 315 311 309 309 312 315 316 317 318 318 317 316 316 315 315 316 317 318 320 321 323 325 327 329 329 330 330 330 330 330 331 331 331 330 329 329 328 327 327 326 325 324 323 322 321 320 318 315 313 311 309 305 303 301
343 343 344 343 342 342 340 338 335 331 327 323 320 317 315 312 309 308 309 312 315 317 317 318 317 317 316 316 315 316 317 318 319 321 323 325 327 328 329 329 329 329 330 330 330 331 331 331 330 329 328 327 326 326 325 325 323 322 321 320 318 316 313 311 309 307 305 302 301
342 343 343 344 342 341 339 336 333 329 325 321 317 315 312 309 307 307 309 313 315 316 317 317 317 317 316 316 316 317 318 319 320 322 324 326 327 328 329 328 329 329 330 330 330 331 331 330 330 328 327 326 325 325 325 324 323 321 319 318 316 313 311 309 308 306 304 302 301
339 340 342 343 342 340 337 334 330 327 323 319 315 312 310 308 307 308 310 314 315 316 317 317 317 316 316 316 317 317 318 320 322 323 325 326 327 327 328 328 329 329 330 330 331 331 330 330 329 328 326 325 324 324 324 323 322 320 318 316 313 311 310 308 306 305 303 302 301
334 337 340 341 339 337 334 332 328 325 320 316 313 311 309 307 308 309 312 314 315 316 316 316 316 316 316 317 317 318 320 321 323 324 325 326 326 327 328 329 330 330 331 331 331 330 330 329 328 327 325 324 323 323 322 322 321 319 317 315 313 311 309 307 306 304 303 302 301
333 335 337 338 336 334 331 329 326 322 318 314 312 310 308 308 309 311 313 315 316 316 316 316 316 316 317 317 318 319 321 322 323 324 325 326 327 327 329 330 330 331 331 331 331 330 329 328 327 325 324 323 322 322 321 321 320 318 316 314 312 310 308 306 305 304 302 301 300
332 334 335 334 333 331 328 326 323 319 316 312 310 309 309 310 311 313 314 315 316 316 316 316 316 316 317 318 319 320 322 323 323 324 325 326 327 328 329 330 331 331 330 330 330 329 328 327 325 324 323 322 322 321 321 320 319 318 316 314 312 310 307 306 304 303 302 301 300
330 331 332 330 329 327 325 323 320 317 313 311 310 309 310 311 313 314 316 316 316 316 316 316 316 317 317 318 319 321 322 322 323 324 325 326 328 329 330 331 330 330 330 329 328 328 326 325 323 322 322 322 321 321 321 320 319 317 315 313 312 309 307 306 304 303 301 300 300
328 329 328 327 326 324 322 320 317 313 311 309 309 310 311 313 315 316 317 317 317 317 317 317 317 317 318 319 320 321 321 322 323 324 326 327 329 330 330 330 330 329 328 328 327 326 324 323 322 322 322 322 321 321 321 320 319 317 315 313 311 309 308 306 304 303 301 300 299
327 328 327 326 324 322 319 317 314 311 309 308 309 310 313 315 316 317 317 317 317 317 317 317 317 317 318 318 319 320 321 321 323 325 327 328 330 330 330 329 328 328 327 326 325 324 323 322 322 322 323 322 322 322 321 320 318 316 314 313 311 309 308 306 305 303 301 300 299
328 329 328 326 323 320 318 315 312 310 308 308 310 312 314 316 317 318 317 317 317 317 316 317 317 317 317 318 319 319 320 322 324 326 328 329 330 329 329 328 327 327 326 325 324 322 322 322 323 323 324 323 323 322 321 319 317 315 314 312 311 310 308 307 305 303 302 300 300
330 330 328 325 322 319 316 314 311 309 309 310 312 314 316 317 317 318 317 317 316 316 316 316 316 317 317 318 319 320 321 323 326 328 329 329 329 328 327 327 326 325 324 323 322 322 323 323 324 324 324 324 323 321 320 317 316 314 313 312 311 310 309 307 305 303 302 301 301
330 328 325 323 320 318 315 313 311 311 311 312 313 315 316 317 317 317 317 316 316 316 316 316 316 317 317 318 320 321 323 326 327 329 329 329 328 327 327 326 325 324 323 322 322 322 323 324 324 324 324 323 322 320 318 317 315 314 312 311 310 310 309 308 306 304 302 302 302
326 324 322 320 319 317 315 313 312 312 312 313 314 315 316 316 316 316 315 315 315 315 315 316 316 317 318 320 321 323 325 327 328 328 328 328 328 327 326 326 324 323 322 321 321 322 322 323 323 323 323 322 320 319 317 315 314 313 312 311 310 309 309 308 306 304 303 303 303
322 320 319 318 316 314 313 313 312 313 313 314 315 315 315 315 315 315 315 314 314 315 315 316 317 318 320 321 323 325 327 328 328 328 327 327 327 327 326 325 324 322 321 321 321 321 322 322 322 322 321 320 318 317 315 314 313 312 311 310 310 309 308 307 306 305 305 304 304
318 317 316 315 313 312 312 312 313 313 314 315 315 315 314 314 314 314 314 314 315 315 316 317 318 320 321 323 325 327 328 328 328 327 326 326 325 325 325 324 323 321 320 320 320 321 321 322 322 321 320 318 317 315 314 313 312 312 311 310 309 308 307 306 306 305 306 306 306
315 315 313 313 312 312 312 313 314 314 315 315 314 314 313 313 314 314 314 314 315 316 318 319 320 321 323 325 326 327 328 328 327 326 325 324 324 324 323 323 321 320 320 320 320 321 321 321 320 320 319 317 315 314 313 312 311 311 310 310 309 307 306 306 305 306 306 307 307
314 312 312 311 311 312 313 314 315 315 314 314 313 313 313 313 313 314 314 315 317 318 319 320 322 323 324 326 327 327 327 327 326 324 324 323 323 322 322 322 321 320 320 320 320 320 320 319 319 318 318 317 315 313 312 311 311 310 309 309 308 307 306 305 306 306 307 307 307
312 311 311 311 313 314 315 315 315 315 314 313 312 312 312 313 313 314 315 316 318 319 320 321 323 324 325 326 326 326 326 325 324 323 322 322 321 321 321 321 320 320 320 320 320 319 318 318 317 317 317 317 315 313 312 311 310 309 309 308 307 306 305 305 306 306 307 307 307
311 310 311 313 314 315 316 316 315 314 313 313 312 312 312 313 314 315 316 317 319 320 321 322 323 325 325 326 326 325 324 323 322 322 322 321 321 321 321 321 321 320 320 320 319 318 317 316 316 316 316 317 316 314 312 311 310 309 308 307 306 306 306 306 306 307 307 307 307
310 311 313 315 316 317 317 316 315 314 313 312 312 312 313 314 315 316 317 318 320 321 322 323 324 325 325 325 325 324 323 322 322 322 322 321 321 321 320 320 320 320 319 319 318 317 316 315 315 316 317 317 316 315 313 312 310 309 308 307 306 306 307 307 307 307 307 307 307
311 312 315 317 318 318 317 315 314 312 312 311 312 312 313 314 316 317 319 320 321 322 323 324 325 325 325 325 324 323 322 322 322 322 322 321 321 320 320 320 319 319 318 318 317 316 315 315 315 316 317 318 317 316 314 312 311 310 308 307 307 307 307 307 307 307 306 306 306
313 316 318 319 319 318 316 314 313 312 311 311 312 313 314 316 317 319 320 321 322 323 323 324 324 325 325 324 323 322 322 321 321 321 321 321 321 320 319 318 318 318 317 317 316 315 315 315 315 317 318 318 317 316 315 313 312 310 309 308 307 307 307 307 307 307 306 306 306
316 319 320 319 318 317 315 313 312 311 311 312 313 314 316 317 319 320 321 322 322 323 323 324 324 324 324 323 323 322 321 321 320 320 321 321 320 320 319 318 317 317 317 316 316 316 316 316 316 317 317 317 317 316 315 314 312 311 310 309 309 309 309 309 308 307 307 307 307
320 320 320 318 317 315 313 312 311 311 312 313 314 316 317 318 319 321 321 322 323 323 324 324 324 323 323 322 322 321 321 320 320 320 321 321 320 319 318 317 317 317 317 317 317 317 316 316 316 316 316 316 316 315 315 314 313 312 311 311 310 310 310 310 309 308 307 307 306
321 320 319 316 315 313 312 311 311 312 313 314 316 317 318 319 320 321 322 323 323 323 323 323 323 322 322 321 321 321 321 321 321 321 321 321 320 319 318 317 316 317 317 318 318 317 316 315 314 314 315 315 315 315 314 313 313 312 312 312 311 311 311 311 310 309 308 307 306
319 318 316 314 313 311 311 311 312 313 315 316 318 319 320 320 321 322 323 323 324 324 323 323 322 322 322 321 321 321 321 321 321 321 321 320 319 318 317 316 316 316 317 318 317 316 314 313 312 313 314 314 315 315 314 314 313 313 313 313 312 312 311 311 311 310 309 308 308
317 315 314 312 311 310 311 312 314 315 317 318 319 320 321 321 322 323 323 323 323 323 323 322 322 321 321 321 321 321 321 321 322 322 321 320 319 318 317 315 315 316 316 316 315 314 312 311 311 313 314 314 314 314 314 314 314 313 313 313 313 312 312 311 312 311 310 310 312
314 312 311 311 310 311 313 314 316 317 318 319 320 321 322 323 323 323 324 324 323 323 322 321 321 321 321 321 321 320 321 322 322 322 322 320 319 317 316 314 314 313 313 313 313 312 311 311 311 313 314 315 315 314 314 314 314 314 314 313 313 313 312 312 312 312 312 313 315
311 310 310 310 311 313 315 317 318 319 320 321 322 322 323 324 324 324 324 323 323 322 321 321 321 321 321 321 321 321 321 322 322 322 322 320 318 315 314 312 312 311 311 311 310 310 310 311 312 313 315 316 315 315 314 315 314 314 314 314 314 313 313 313 313 313 314 315 316